Weather History for KCAG - August, 2013

Change the Weather History Date:

Tuesday, August 6, 2013

  Actual Average Record
Temperature  
Mean Temperature 68 °F 67 °F  
Max Temperature 89 °F 87 °F 96 °F (2003)
Min Temperature 46 °F 47 °F 41 °F (1996)
Degree Days  
Heating Degree Days 0 1  
Month to date heating degree days 0 4  
Since 1 June heating degree days 88 204  
Since 1 July heating degree days 0 29  
Cooling Degree Days 3 3  
Month to date cooling degree days 24 18  
Year to date cooling degree days 256 107  
Since 1 June cooling degree days 256 107  
Growing Degree Days 18 (Base 50)    
Moisture  
Dew Point 45 °F    
Average Humidity 51    
Maximum Humidity 86    
Minimum Humidity 15    
Precipitation  
Precipitation 0.12 in 0.04 in 0.82 in (2002)
Month to date precipitation 0.12 0.22  
Year to date precipitation 5.64 8.89  
Sea Level Pressure  
Sea Level Pressure 30.01 in    
Wind  
Wind Speed 6 mph (SE)    
Max Wind Speed 30 mph    
Max Gust Speed 43 mph    
Visibility 10 miles    
Events Rain , Thunderstorm    
T = Trace of Precipitation, MM = Missing Value Source: NWS Daily Summary

Daily Weather History Graph

Daily Weather History Graph

Search for Another Location

Airport or City:

Trip Planner

Search our weather history database for the weather conditions in past years. The results will help you decide how hot, cold, wet, or windy it might be!

Date:

Astronomy

Aug. 06, 2013 Rise Set
Actual Time 6:12 AM MDT 8:18 PM MDT
Civil Twilight 5:42 AM MDT 8:48 PM MDT
Nautical Twilight 5:05 AM MDT 9:25 PM MDT
Astronomical Twilight 4:25 AM MDT 10:05 PM MDT
Moon 6:06 AM MDT (8/6) 7:55 PM MDT (8/6)
Length of Visible Light 15h 06m
Length of Day
14h 06m
Waning Crescent, 0% of the Moon is Illuminated
Aug 6
Waning Crescent
Aug 6
New
Aug 14
First Quarter
Aug 20
Full
Aug 28
Last Quarter

Hourly Weather History & Observations

Time (MDT) Temp. Dew Point Humidity Pressure Visibility Wind Dir Wind Speed Gust Speed Precip Events Conditions
12:53 AM 55.9 °F 45.0 °F 67% 29.97 in 10.0 mi Calm Calm - N/A   Clear
1:53 AM 51.1 °F 44.1 °F 77% 29.96 in 10.0 mi ESE 3.5 mph - N/A   Clear
2:53 AM 51.1 °F 43.0 °F 74% 29.97 in 10.0 mi Calm Calm - N/A   Clear
3:53 AM 48.9 °F 43.0 °F 80% 29.96 in 10.0 mi Calm Calm - N/A   Clear
4:53 AM 46.0 °F 42.1 °F 86% 30.02 in 10.0 mi Calm Calm - N/A   Clear
5:53 AM 46.9 °F 42.1 °F 83% 30.02 in 10.0 mi Calm Calm - N/A   Clear
6:53 AM 48.9 °F 43.0 °F 80% 30.03 in 10.0 mi Calm Calm - N/A   Clear
7:53 AM 57.0 °F 46.0 °F 67% 30.02 in 10.0 mi WSW 3.5 mph - N/A   Clear
8:53 AM 66.9 °F 46.0 °F 47% 29.99 in 10.0 mi ENE 9.2 mph - N/A   Clear
9:53 AM 73.0 °F 46.0 °F 38% 29.97 in 10.0 mi ENE 8.1 mph - N/A   Scattered Clouds
10:53 AM 78.1 °F 46.9 °F 33% 29.96 in 10.0 mi NE 3.5 mph - N/A   Clear
11:53 AM 82.9 °F 39.9 °F 22% 29.94 in 10.0 mi Variable 3.5 mph 16.1 mph N/A   Clear
12:23 PM 84.2 °F 41.0 °F 22% 30.16 in 10.0 mi NW 12.7 mph - N/A Thunderstorm Clear
12:38 PM 84.2 °F 41.0 °F 22% 30.16 in 10.0 mi West 12.7 mph 19.6 mph N/A   Clear
12:53 PM 86.0 °F 39.0 °F 19% 29.92 in 10.0 mi NW 11.5 mph 18.4 mph N/A   Clear
1:53 PM 87.1 °F 33.1 °F 15% 29.91 in 10.0 mi West 10.4 mph - N/A   Clear
2:53 PM 82.9 °F 44.1 °F 25% 29.91 in 10.0 mi SSE 18.4 mph 23.0 mph N/A   Scattered Clouds
3:20 PM 80.6 °F 35.6 °F 20% 30.14 in 10.0 mi NNW 18.4 mph 27.6 mph N/A   Overcast
3:27 PM 75.2 °F 39.2 °F 27% 30.15 in 10.0 mi WNW 17.3 mph 26.5 mph 0.00 in Rain , Thunderstorm Light Thunderstorms and Rain
3:42 PM 66.2 °F 44.6 °F 46% 30.17 in 1.8 mi SW 20.7 mph 42.6 mph 0.11 in Rain , Thunderstorm Heavy Thunderstorms and Rain
3:48 PM 66.2 °F 46.4 °F 49% 30.17 in 2.5 mi South 19.6 mph 34.5 mph 0.12 in Rain , Thunderstorm Light Thunderstorms and Rain
3:53 PM 64.9 °F 50.0 °F 58% 30.02 in 8.0 mi South 15.0 mph 24.2 mph 0.12 in Rain , Thunderstorm Light Thunderstorms and Rain
4:00 PM 69.8 °F 48.2 °F 46% 30.16 in 10.0 mi South 15.0 mph 28.8 mph 0.00 in Rain , Thunderstorm Light Thunderstorms and Rain
4:38 PM 68.0 °F 51.8 °F 56% 30.14 in 10.0 mi SSE 17.3 mph - 0.00 in   Clear
4:53 PM 68.0 °F 53.1 °F 59% 30.00 in 10.0 mi South 12.7 mph - 0.00 in   Clear
5:53 PM 69.1 °F 50.0 °F 51% 30.02 in 10.0 mi SSE 15.0 mph - N/A   Clear
6:53 PM 72.0 °F 46.0 °F 40% 29.99 in 10.0 mi East 8.1 mph - N/A   Clear
7:53 PM 69.1 °F 48.9 °F 49% 29.98 in 10.0 mi ENE 6.9 mph - N/A   Clear
8:53 PM 66.0 °F 46.9 °F 50% 29.95 in 10.0 mi NE 6.9 mph - N/A   Clear
9:53 PM 63.0 °F 46.0 °F 54% 29.97 in 10.0 mi East 4.6 mph - N/A   Clear
10:53 PM 61.0 °F 46.0 °F 58% 29.96 in 10.0 mi ESE 3.5 mph - N/A   Clear
11:53 PM 59.0 °F 46.0 °F 62% 29.95 in 10.0 mi East 4.6 mph - N/A   Clear